Regional Weather Roundup
Issued by NWS

Home | Current Version | Previous Version | Graphics & Text | Print | Product List | Glossary On
Versions: 1 2 3 4 5 6 7 8 9 10 11 12 13 14 15 16 17 18 19 20 21 22 23 24 25 26 27 28 29 30 31 32 33 34 35 36 37 38 39 40 41 42 43 44 45 46 47 48 49 50
000
ASUS43 KDMX 241101
RWRIA

WEATHER ROUNDUP FOR IOWA
NATIONAL WEATHER SERVICE DES MOINES IA
500 AM CST TUE JAN 24 2017

NOTE: "FAIR" INDICATES FEW OR NO CLOUDS BELOW 12,000 FEET WITH NO
SIGNIFICANT WEATHER AND/OR OBSTRUCTIONS TO VISIBILITY.

* - THESE STATIONS ARE NOT NWS STATIONS...THUS NOT UNDER NWS
QUALITY CONTROL.  THEY ALSO DO NOT REPORT WEATHER SUCH
AS PRECIPITATION OR FOG.

IAZ001>003-012>014-020>022-031>034-043>046-241200-
   NORTHWEST IOWA

CITY           SKY/WX    TMP DP  RH WIND       PRES   REMARKS
CARROLL *      CLOUDY    32  32 100 SE12      29.81F WCI  23
CHEROKEE *     CLOUDY    31  30  94 E7        29.82S WCI  25
DENISON *      CLOUDY    30  28  93 SE6G12    29.78F WCI  24
LE MARS *      CLOUDY    32  30  93 SE7       29.81S WCI  26
ORANGE CITY *  CLOUDY    30  30 100 SE8       29.79F WCI  23
SHELDON *      CLOUDY    30  30 100 E13       29.79F WCI  20
SIOUX CITY     CLOUDY    32  29  88 SE9       29.80S WCI  24
SPENCER        CLOUDY    32  29  88 SE9       29.83S WCI  24
STORM LAKE *   CLOUDY    30  28  93 SE12      29.81S WCI  21
$$

IAZ055>058-069>071-079>083-090>094-241200-
   SOUTHWEST IOWA

CITY           SKY/WX    TMP DP  RH WIND       PRES   REMARKS
ATLANTIC *     CLOUDY    30  28  93 SE7G15    29.81S WCI  23
AUDUBON *      CLOUDY    30  27  86 E9        29.80F FOG     WCI  22
CLARINDA *     CLOUDY    30  32 100 E7        29.82R FOG     WCI  23
COUNCIL BLFS * CLOUDY    28  30 100 E10       29.78R FOG     WCI  19
CRESTON *      CLOUDY    28  28 100 E13       29.80F FOG     WCI  18
HARLAN  *      CLOUDY    30  30 100 SE8       29.83F WCI  23
LAMONI         CLOUDY    29  27  92 E8        29.81F WCI  21
RED OAK *      CLOUDY    30  30 100 E10       29.79F WCI  21
SHENANDOAH *   CLOUDY    30  30 100 E12G17    29.78F FOG     WCI  21
$$

IAZ047>049-059>061-072>074-084-241200-
   CENTRAL IOWA

CITY           SKY/WX    TMP DP  RH WIND       PRES   REMARKS
AMES           CLOUDY    32  30  92 E5        29.86R WCI  27
ANKENY *       CLOUDY    32  28  86 E5        29.87S WCI  27
BOONE *        CLOUDY    32  32 100 E8        29.84S WCI  25
CHARITON *     CLOUDY    30  28  93 SE7       29.86R WCI  23
DES MOINES     CLOUDY    32  28  85 SE8       29.85F WCI  25
GRINNELL*      CLOUDY    32  28  86 CALM      29.88R
KNOXVILLE *    CLOUDY    30  28  93 E6        29.84F WCI  24
MARSHALLTOWN   CLOUDY    32  29  88 E3        29.86S
NEWTON *       CLOUDY    32  28  86 SE5       29.86S WCI  27
PELLA *        CLOUDY    32  29  90 CALM      29.87F
PERRY *        CLOUDY    32  30  92 E7        29.84F WCI  26
$$

IAZ004>006-015-016-023>025-035-036-241200-
   NORTH CENTRAL IOWA

CITY           SKY/WX    TMP DP  RH WIND       PRES   REMARKS
ALGONA *       CLOUDY    32  30  93 SE3       29.85R
CLARION *      CLOUDY    32  32 100 CALM      29.85S
ESTHERVILLE    CLOUDY    30  30 100 E6        29.84S WCI  24
FORT DODGE *   CLOUDY    30  27  86 E6        29.86R WCI  24
MASON CITY     CLOUDY    31  27  85 N6        29.86F WCI  25
FOREST CITY *  CLOUDY    32  30  93 CALM      29.86S
WEBSTER CITY * CLOUDY    32 N/A N/A E7        29.84R WCI  26
IOWA FALLS *   CLOUDY    32  29  87 CALM      29.86F
$$

IAZ007>011-017>019-026>030-037>042-050>054-066-241200-
   NORTHEAST IOWA

CITY           SKY/WX    TMP DP  RH WIND       PRES   REMARKS
CEDAR RAPIDS   CLOUDY    32  28  85 SW3       29.87R
CHARLES CITY * CLOUDY    32  32 100 N7        29.86F WCI  26
CLINTON *      CLOUDY    33  31  92 W5        29.88R WCI  29
DECORAH *      CLOUDY    32  30  93 NW3       29.85S
DUBUQUE        CLOUDY    32  29  88 W3        29.85S
MONTICELLO *   CLOUDY    32  30  93 S3        29.87S
OELWEIN *      CLOUDY    32  32 100 CALM      29.86S
WATERLOO       CLOUDY    32  28  85 N3        29.87R
$$

IAZ064-065-067-068-078-241200-
   EAST CENTRAL IOWA

CITY           SKY/WX    TMP DP  RH WIND       PRES   REMARKS
DAVENPORT      CLOUDY    32  30  92 W7        29.88R WCI  26
IOWA CITY      CLOUDY    34  28  79 CALM      29.90S
MUSCATINE *    CLOUDY    34  30  86 CALM      29.90S
QUAD CITIES    CLOUDY    34  30  85 W5        29.88R WCI  30
$$

IAZ062-063-075>077-085>089-095>099-241200-
   SOUTHEAST IOWA

CITY           SKY/WX    TMP DP  RH WIND       PRES   REMARKS
BURLINGTON     CLOUDY    33  30  88 SW3       29.88S
FAIRFIELD *    CLOUDY    32  28  86 CALM      29.88S
FORT MADISON * CLOUDY    32  30  93 CALM      29.90S
KEOKUK *       CLOUDY    32 N/A N/A CALM      29.89S
OSKALOOSA *    CLOUDY    31  29  91 CALM      29.87F
CENTERVILLE *  CLOUDY    30  30 100 CALM      29.87S
OTTUMWA        CLOUDY    32  27  81 VRB5      29.86F WCI  27
WASHINGTON *   CLOUDY    32  30  93 CALM      29.90S
$$

ABBREVIATIONS USED IN REMARKS
   TC - TEMPERATURES IN CELSIUS
  WCI - WIND CHILL INDEX
   HX - HEAT INDEX
  VSB - VISIBILITY
$$





USA.gov is the U.S. government's official web portal to all federal, state and local government web resources and services.